Wind_Speed
17 16 16 15 14 14 14 12 11 12 11 12 12 11 11 11 11 10 10 12 12 17 20 21 20 18 14 10 9 9 6 10 12 14 6 6 14 19 14 6 4 6 6 28 30
21 20 20 19 18 16 14 13 12 12 11 11 12 11 11 10 11 11 12 11 11 15 16 17 19 18 17 13 10 8 9 9 9 11 15 2 7 1 9 6 12 9 23 33 29
21 21 19 18 19 19 18 15 13 12 11 10 12 10 10 10 10 11 13 12 12 14 18 19 21 19 19 14 11 9 8 3 7 13 11 13 11 15 12 15 15 5 24 27 27
22 21 21 21 18 16 17 17 16 13 12 10 11 10 8 9 6 10 12 14 15 14 19 22 21 22 20 17 13 9 7 3 8 12 13 11 11 3 15 15 16 10 14 22 25
22 22 21 20 20 21 17 14 15 15 13 11 9 10 8 8 10 6 10 16 17 14 16 16 18 21 21 17 14 14 4 0 4 10 15 9 6 7 9 21 9 17 18 24 26
23 21 21 21 19 19 21 19 12 14 14 12 9 9 7 7 10 10 9 14 16 15 13 14 14 16 20 17 14 10 7 2 1 6 2 2 5 7 7 8 5 13 16 21 27
22 22 21 20 19 19 19 19 17 12 13 13 9 8 7 9 12 16 12 12 17 17 11 13 16 21 22 15 14 8 6 3 1 4 5 5 2 6 9 13 10 10 17 25 28
19 18 19 19 17 17 20 18 16 16 13 12 10 8 9 9 10 11 12 11 16 21 18 16 18 20 19 15 14 8 8 3 2 6 4 6 4 5 11 12 8 9 17 24 32
19 17 17 17 16 15 18 18 17 15 15 12 11 9 8 10 9 11 12 14 16 22 23 23 21 22 21 16 11 9 7 5 4 9 2 3 5 14 25 7 12 10 14 23 28
17 16 15 15 15 15 14 16 16 15 15 12 11 10 12 15 11 9 17 18 17 23 24 26 25 27 23 18 10 10 9 8 10 8 3 5 6 16 7 12 12 13 13 20 26
18 15 13 12 12 12 13 12 13 13 13 14 12 11 17 15 11 11 16 19 17 21 27 28 28 31 26 16 13 11 9 11 7 2 4 5 5 18 15 12 12 12 11 15 24
16 15 12 9 8 9 11 10 11 11 8 13 10 16 20 16 13 14 21 19 18 18 23 26 29 22 17 14 13 14 11 9 6 4 4 4 8 9 18 19 14 12 14 14 20
12 13 10 7 6 7 8 8 8 6 5 9 14 21 17 15 11 11 14 13 15 12 19 24 19 21 18 15 17 16 15 9 6 3 3 5 5 7 16 23 22 15 16 19 19
9 10 9 6 3 5 7 8 5 3 2 7 20 17 15 16 12 10 10 10 15 10 16 12 12 21 18 20 16 18 17 12 7 1 3 6 3 2 17 23 23 18 16 22 21
8 8 7 7 3 2 3 3 3 7 3 7 20 14 11 11 15 13 17 11 9 15 15 10 21 13 19 22 18 12 7 10 6 4 3 2 1 5 8 17 18 15 18 23 19
8 8 6 5 2 3 2 5 8 1 3 5 10 14 16 13 13 17 18 11 10 10 13 12 8 8 15 15 17 8 6 4 5 4 2 4 3 7 5 8 12 20 24 25 24
10 8 6 7 9 9 10 8 4 6 3 5 10 14 14 17 14 12 13 16 12 12 11 10 8 8 11 12 15 14 12 4 2 3 5 15 8 10 6 4 7 10 11 20 27
9 9 13 11 9 8 9 9 9 10 10 6 8 11 15 17 15 10 14 14 10 11 16 11 5 13 9 15 14 13 16 6 5 5 6 13 10 6 7 8 5 5 7 8 18
6 11 10 11 8 5 5 13 7 7 11 7 12 12 13 11 12 14 15 14 9 9 7 10 9 13 9 12 19 13 12 13 8 7 6 6 5 6 3 2 1 4 5 13 14
4 6 5 4 8 6 8 16 7 8 6 5 5 7 12 13 11 10 7 8 11 9 8 8 11 7 5 11 13 16 13 10 9 4 3 4 7 6 2 1 3 0 3 10 19
1 3 2 4 6 6 9 10 7 7 7 3 7 9 11 12 13 9 8 9 8 8 7 8 6 5 6 11 8 12 13 8 12 6 6 4 3 5 5 3 3 4 5 6 17
5 8 5 4 6 9 8 5 4 5 2 3 5 7 7 10 11 9 10 8 9 6 4 6 8 12 16 14 12 8 11 12 13 7 6 6 6 4 2 2 4 5 5 6 8
6 10 10 7 4 7 7 8 5 5 4 2 3 4 5 6 4 12 11 7 6 5 4 5 6 9 7 3 5 7 11 10 11 15 7 7 8 7 3 1 3 7 7 7 7
7 6 9 3 1 3 6 6 6 6 4 2 3 2 4 2 4 9 10 6 5 3 4 2 1 3 9 7 6 1 1 7 7 5 8 6 10 11 6 3 4 5 11 11 10
9 9 9 8 7 6 5 4 4 3 2 2 1 4 4 3 7 10 9 7 4 3 2 1 2 4 8 6 4 2 2 4 10 9 6 6 9 10 9 9 8 7 10 13 12
10 10 11 10 10 9 6 8 6 4 2 1 1 5 6 7 7 9 9 8 6 4 3 1 6 6 4 4 5 6 8 8 8 10 15 14 16 16 16 16 14 10 9 11 11
14 12 9 10 8 7 11 11 10 8 6 4 4 0 3 5 6 8 9 11 11 9 6 4 5 5 5 6 2 4 7 9 11 11 13 16 17 19 21 24 22 18 13 10 6
Wind_Direction
303 302 300 296 293 291 292 291 282 277 270 271 266 258 251 250 241 230 219 213 206 204 199 197 198 192 195 173 160 118 104 85 66 49 4 247 238 192 188 181 180 175 196 171 162
303 306 309 309 306 298 289 285 285 274 272 265 266 264 252 246 238 229 221 215 208 205 204 202 200 196 190 178 164 129 108 94 64 34 24 290 258 188 185 201 161 135 154 164 167
298 294 290 291 299 305 301 289 280 277 271 262 262 264 259 242 235 228 221 205 205 197 191 197 195 197 191 182 167 147 121 109 31 20 11 22 45 261 243 199 168 166 172 177 172
296 293 290 282 271 273 286 294 287 276 270 265 255 257 259 238 225 225 209 199 201 199 199 200 194 193 189 188 187 168 136 42 13 352 349 343 341 194 176 222 191 172 197 189 178
292 291 292 289 285 281 270 261 279 279 269 264 254 249 244 227 212 206 193 194 198 201 202 205 200 193 188 192 201 188 147 309 1 322 320 322 353 133 168 187 198 139 176 193 179
286 287 283 284 284 270 271 274 247 264 269 260 253 240 239 227 205 200 186 190 192 199 203 195 195 189 191 189 192 191 199 185 282 303 50 74 56 86 128 179 207 145 159 190 178
298 285 285 280 279 274 262 261 268 246 254 258 247 228 224 211 197 199 188 188 187 188 191 187 185 188 191 189 187 188 213 241 11 83 87 154 77 99 158 189 227 160 163 181 180
321 296 282 284 277 272 262 257 256 261 243 245 241 209 214 197 178 187 204 195 192 182 172 184 188 186 186 184 194 201 191 134 78 86 141 178 67 67 158 160 194 176 172 174 187
322 319 296 287 282 269 261 257 253 250 254 234 224 198 189 170 173 194 184 188 183 179 176 177 185 188 184 183 187 185 171 162 130 140 80 200 116 128 96 139 205 200 174 174 183
328 320 313 296 286 276 260 252 250 241 241 234 207 181 180 155 151 167 180 174 178 178 179 182 182 191 193 195 197 180 172 134 127 148 203 264 236 205 206 127 157 193 189 175 183
336 325 317 309 284 275 262 249 243 241 228 218 194 183 167 160 156 152 176 172 174 181 184 186 188 192 192 195 199 184 186 172 144 90 326 265 274 228 244 210 179 192 203 196 186
340 336 323 304 277 263 259 247 235 238 228 213 193 169 161 160 150 161 179 178 172 180 190 192 199 192 190 203 214 211 217 209 203 183 334 271 287 248 230 226 219 212 201 210 195
345 343 335 309 265 240 245 255 259 256 246 205 177 164 162 159 152 149 174 177 184 179 197 204 212 191 200 209 218 221 227 209 198 277 47 22 301 239 209 220 219 212 206 210 213
343 348 350 345 295 274 257 273 266 238 159 181 166 165 164 163 163 169 186 193 178 173 175 197 202 203 210 211 219 226 226 199 181 306 3 358 325 282 216 220 225 220 214 210 206
341 341 353 10 11 328 288 271 229 141 76 123 164 173 179 174 164 162 166 181 194 177 181 166 192 199 213 218 214 220 186 204 228 247 284 327 343 9 228 225 229 234 231 219 214
350 340 346 12 23 334 316 152 143 114 70 135 154 169 161 154 160 154 177 179 179 170 186 161 157 186 219 218 207 192 214 216 203 173 193 187 167 31 320 312 278 270 251 235 227
22 27 48 66 75 84 103 114 98 57 74 85 153 171 167 160 160 164 184 200 195 185 176 187 202 197 195 181 206 209 208 151 96 142 193 151 157 49 40 15 337 265 234 240 237
33 82 84 70 75 93 111 99 71 53 66 97 142 170 169 172 162 159 149 131 139 183 192 184 162 185 206 194 201 207 214 185 158 171 170 164 159 62 53 40 359 308 241 208 218
73 87 88 69 58 96 131 109 57 46 40 102 124 143 161 162 167 153 129 110 100 152 173 152 134 124 172 195 203 192 193 201 112 112 130 175 144 179 162 199 217 60 206 211 222
127 105 84 71 62 65 142 88 72 49 48 46 113 130 145 161 144 136 120 115 101 115 141 137 134 111 134 142 194 202 179 157 165 129 146 93 61 13 32 98 105 172 37 212 220
326 345 59 12 354 22 89 93 65 38 37 96 113 130 132 145 157 139 147 148 140 130 114 133 129 95 139 73 87 156 169 155 163 160 151 127 107 40 21 20 356 2 350 316 227
317 305 307 327 339 24 78 68 8 310 357 115 132 153 151 150 151 146 160 157 161 161 135 94 90 83 125 115 101 106 90 156 172 174 141 127 140 155 104 16 348 312 302 322 283
332 321 304 293 349 13 57 23 21 354 197 186 134 150 157 171 118 143 152 160 159 166 130 112 108 114 129 152 134 119 93 108 147 165 149 146 156 164 160 249 295 324 326 294 290
6 0 31 42 39 69 25 20 23 39 86 149 128 146 174 216 179 180 169 171 192 174 158 156 134 196 183 154 163 141 95 144 180 194 165 163 170 190 211 272 305 321 331 329 320
25 39 48 50 40 27 11 22 25 27 49 107 210 237 217 160 153 168 183 179 190 244 258 359 164 159 164 180 193 205 203 188 198 219 222 187 245 250 250 268 291 314 316 320 329
42 42 52 62 57 52 55 63 52 38 20 349 221 238 226 219 214 189 188 207 222 246 264 208 161 153 158 204 232 259 258 247 244 229 228 245 260 263 272 280 278 284 299 293 314
50 52 64 66 68 69 60 52 52 43 29 22 27 329 233 223 229 228 232 226 226 231 250 243 215 208 180 201 255 166 167 181 211 237 245 256 262 260 256 260 262 265 274 281 274
Height
3126 3125 3123 3122 3121 3121 3121 3121 3120 3120 3120 3120 3120 3121 3121 3123 3124 3126 3128 3130 3131 3134 3136 3139 3142 3145 3148 3151 3152 3153 3155 3155 3156 3155 3155 3156 3150 3141 3158 3160 3161 3162 3163 3169 3172
3123 3122 3121 3120 3119 3118 3117 3118 3118 3117 3117 3118 3117 3118 3119 3120 3122 3123 3126 3128 3130 3132 3136 3139 3141 3145 3147 3150 3152 3154 3155 3156 3157 3158 3156 3155 3153 3151 3159 3159 3161 3165 3166 3171 3175
3119 3118 3117 3116 3116 3116 3115 3115 3115 3114 3114 3115 3115 3116 3117 3118 3119 3121 3123 3126 3128 3131 3133 3136 3139 3144 3147 3150 3152 3154 3155 3157 3157 3158 3158 3157 3155 3154 3158 3159 3163 3167 3170 3173 3177
3115 3113 3112 3111 3110 3110 3111 3112 3112 3111 3112 3112 3113 3114 3114 3116 3119 3117 3120 3123 3126 3129 3132 3134 3138 3142 3146 3149 3151 3154 3156 3157 3158 3158 3158 3158 3158 3156 3160 3160 3164 3168 3173 3175 3178
3111 3109 3108 3107 3107 3107 3106 3106 3109 3109 3109 3109 3110 3111 3113 3114 3115 3116 3118 3121 3124 3128 3131 3134 3138 3142 3146 3149 3151 3153 3156 3157 3158 3158 3157 3158 3160 3158 3157 3158 3161 3167 3172 3176 3180
3105 3104 3102 3102 3103 3102 3103 3103 3102 3105 3106 3107 3107 3109 3111 3113 3113 3114 3117 3119 3123 3127 3130 3134 3138 3142 3145 3147 3150 3152 3154 3157 3157 3157 3158 3159 3161 3159 3160 3160 3163 3168 3171 3176 3180
3100 3099 3098 3097 3097 3099 3098 3098 3101 3100 3102 3104 3105 3106 3108 3110 3111 3113 3115 3118 3121 3125 3130 3133 3137 3140 3143 3147 3150 3152 3154 3156 3156 3156 3158 3161 3161 3160 3160 3162 3164 3168 3172 3176 3180
3096 3094 3093 3093 3093 3093 3094 3094 3096 3098 3098 3100 3103 3104 3106 3108 3110 3112 3114 3116 3119 3122 3127 3132 3135 3139 3143 3146 3149 3151 3154 3156 3156 3157 3160 3162 3164 3163 3162 3164 3163 3167 3171 3174 3180
3094 3091 3090 3089 3089 3088 3090 3092 3092 3094 3096 3097 3101 3102 3105 3107 3109 3111 3113 3115 3117 3121 3124 3128 3133 3138 3142 3145 3148 3151 3152 3155 3156 3157 3160 3163 3164 3163 3162 3165 3167 3166 3170 3173 3179
3091 3089 3087 3086 3086 3085 3085 3087 3088 3090 3093 3095 3097 3103 3103 3105 3106 3108 3110 3113 3116 3119 3123 3127 3131 3135 3139 3143 3146 3149 3152 3154 3155 3159 3160 3161 3163 3164 3165 3166 3164 3166 3168 3173 3177
3089 3086 3085 3084 3083 3082 3084 3084 3088 3089 3090 3093 3095 3097 3100 3104 3106 3108 3110 3112 3114 3119 3121 3125 3128 3130 3137 3142 3146 3149 3151 3154 3156 3157 3158 3158 3160 3162 3164 3166 3164 3165 3168 3171 3176
3088 3085 3083 3082 3081 3081 3081 3083 3084 3088 3089 3091 3094 3096 3100 3103 3105 3107 3110 3113 3115 3118 3121 3125 3126 3133 3139 3142 3144 3148 3150 3153 3155 3156 3156 3157 3157 3157 3159 3165 3167 3167 3169 3170 3175
3086 3084 3083 3081 3081 3081 3081 3083 3084 3086 3088 3090 3093 3097 3100 3105 3106 3107 3110 3113 3116 3118 3120 3123 3128 3133 3137 3140 3143 3145 3147 3151 3154 3154 3154 3154 3155 3155 3156 3160 3165 3167 3168 3170 3172
3086 3084 3083 3082 3083 3082 3082 3083 3084 3085 3088 3091 3093 3097 3101 3103 3106 3108 3110 3114 3115 3118 3121 3125 3128 3131 3134 3137 3141 3142 3146 3150 3152 3153 3153 3154 3156 3153 3155 3156 3161 3166 3168 3168 3171
3086 3085 3083 3082 3082 3082 3083 3082 3084 3086 3089 3093 3094 3097 3100 3104 3105 3107 3110 3113 3115 3117 3121 3124 3127 3130 3132 3134 3138 3142 3146 3149 3151 3152 3154 3154 3156 3156 3155 3157 3159 3163 3165 3167 3169
3087 3086 3084 3082 3082 3082 3081 3082 3085 3088 3088 3092 3094 3096 3099 3102 3104 3106 3110 3113 3115 3117 3120 3123 3126 3128 3130 3133 3136 3141 3144 3146 3148 3151 3153 3153 3156 3157 3158 3159 3160 3161 3162 3164 3166
3089 3086 3084 3083 3083 3082 3082 3084 3086 3086 3091 3093 3093 3095 3099 3102 3105 3107 3108 3110 3113 3116 3119 3122 3124 3125 3128 3131 3134 3137 3141 3144 3150 3152 3152 3152 3155 3159 3156 3155 3155 3155 3156 3160 3163
3091 3089 3087 3086 3085 3084 3084 3086 3087 3090 3090 3091 3093 3095 3098 3101 3104 3105 3107 3109 3112 3115 3117 3120 3124 3124 3125 3128 3130 3134 3137 3139 3145 3151 3148 3150 3151 3154 3154 3153 3152 3151 3153 3154 3158
3094 3092 3091 3089 3087 3086 3087 3086 3091 3091 3092 3093 3094 3096 3098 3101 3104 3106 3107 3109 3111 3113 3116 3118 3122 3122 3123 3124 3128 3130 3133 3137 3139 3141 3144 3147 3150 3150 3150 3150 3149 3149 3150 3151 3154
3097 3095 3094 3092 3091 3090 3090 3089 3093 3093 3093 3094 3094 3096 3098 3101 3104 3105 3108 3110 3111 3112 3114 3116 3120 3122 3122 3123 3125 3127 3131 3135 3136 3143 3145 3147 3149 3150 3147 3148 3148 3148 3149 3149 3150
3100 3098 3096 3095 3094 3093 3091 3093 3095 3095 3095 3095 3095 3097 3098 3100 3102 3104 3108 3111 3112 3113 3114 3116 3119 3123 3123 3125 3124 3126 3128 3130 3134 3136 3139 3148 3152 3151 3148 3147 3147 3146 3147 3147 3147
3100 3099 3097 3096 3097 3093 3093 3094 3095 3095 3095 3095 3096 3097 3098 3099 3101 3103 3106 3109 3111 3113 3115 3117 3119 3121 3125 3126 3126 3126 3127 3128 3130 3136 3136 3140 3150 3148 3148 3148 3147 3145 3146 3146 3146
3099 3097 3095 3095 3096 3095 3095 3095 3095 3094 3094 3096 3096 3098 3099 3100 3103 3103 3106 3109 3110 3112 3115 3117 3120 3124 3130 3130 3128 3126 3128 3129 3129 3130 3133 3137 3146 3145 3146 3147 3146 3145 3144 3144 3145
3099 3097 3096 3095 3095 3096 3096 3096 3096 3095 3095 3096 3097 3099 3100 3101 3102 3103 3106 3108 3109 3112 3114 3116 3118 3120 3123 3124 3126 3127 3128 3129 3129 3130 3132 3135 3138 3142 3144 3144 3144 3143 3142 3142 3142
3100 3098 3097 3096 3096 3097 3097 3097 3096 3096 3097 3098 3098 3098 3100 3102 3102 3104 3106 3107 3108 3110 3112 3115 3116 3118 3120 3122 3124 3125 3127 3127 3128 3129 3131 3134 3135 3138 3141 3142 3142 3142 3142 3141 3141
3102 3100 3099 3098 3098 3098 3098 3097 3097 3097 3098 3097 3098 3098 3099 3101 3103 3104 3105 3106 3107 3108 3110 3111 3114 3116 3119 3121 3122 3123 3124 3125 3126 3127 3128 3130 3132 3135 3137 3138 3140 3141 3141 3140 3140
3103 3102 3102 3101 3100 3101 3100 3099 3099 3098 3098 3097 3097 3097 3097 3099 3100 3102 3102 3104 3105 3106 3108 3110 3112 3114 3116 3118 3121 3122 3120 3121 3122 3124 3126 3126 3129 3131 3134 3134 3137 3138 3139 3140 3138